Location: Limoges
(45.8354°N, 1.2645°E)
Time: 11:24:42
(UTC+01:00)

Vanguard 1 - All Passes

Search period start: 22 February 2024 00:00
Search period end: 03 March 2024 00:00
Orbit: 653 x 3826 km, 34.3° (Epoch: 21 February)

Date Brightness Start Highest point End Pass type
(mag) Time Alt. Az. Time Alt. Az. Time Alt. Az.
22 Feb - 02:11:03 10° W 02:32:09 48° SSW 02:50:52 10° SE visible
22 Feb - 04:39:08 10° W 04:54:26 23° SW 05:07:05 10° S visible
22 Feb - 19:28:42 10° SSW 19:40:13 30° SE 19:56:49 10° E visible
22 Feb - 21:46:17 10° SW 22:02:24 54° SSE 22:24:38 10° E visible
23 Feb - 00:07:39 10° W 00:27:32 59° S 00:49:27 10° ESE visible
23 Feb - 02:31:55 10° W 02:52:20 43° SSW 03:10:25 10° SSE visible
23 Feb - 05:02:00 10° W 05:13:57 17° SW 05:24:18 10° SSW visible
23 Feb - 19:47:49 10° SSW 19:59:58 37° SE 20:18:10 10° E visible
23 Feb - 22:06:21 10° WSW 22:22:49 57° SSE 22:45:23 10° E visible
24 Feb - 00:28:09 10° W 00:48:07 57° SSW 01:09:41 10° ESE visible
24 Feb - 02:52:58 10° W 03:12:24 37° SW 03:29:39 10° SSE visible
24 Feb - 05:27:27 10° WSW 05:33:23 12° WSW 05:38:55 10° SW visible
24 Feb - 17:53:46 10° SSE 18:00:08 15° SE 18:08:11 10° E daylight
24 Feb - 20:07:15 10° SW 20:19:53 42° SSE 20:39:18 10° E visible
24 Feb - 22:26:31 10° WSW 22:43:20 59° S 23:06:04 10° ESE visible
25 Feb - 00:48:44 10° W 01:08:37 53° SSW 01:29:45 10° SE visible
25 Feb - 03:14:17 10° W 03:32:19 31° SW 03:48:28 10° S visible
25 Feb - 18:11:21 10° S 18:19:33 21° SE 18:30:56 10° E daylight
25 Feb - 20:26:55 10° SW 20:39:58 48° SSE 21:00:17 10° E visible
25 Feb - 22:46:47 10° WSW 23:03:54 59° S 23:26:39 10° ESE visible
26 Feb - 01:09:23 10° W 01:29:02 48° SSW 01:49:36 10° SE visible
26 Feb - 03:36:04 10° W 03:52:06 25° SW 04:06:41 10° S visible
26 Feb - 18:29:54 10° S 18:39:05 27° SE 18:52:47 10° E daylight
26 Feb - 20:46:45 10° SW 21:00:11 52° SSE 21:21:12 10° E visible
26 Feb - 23:07:08 10° WSW 23:24:28 58° S 23:47:07 10° ESE visible
27 Feb - 01:30:08 10° W 01:49:20 43° SSW 02:09:10 10° SSE visible
27 Feb - 03:58:40 10° W 04:11:47 19° SW 04:23:58 10° SSW visible
27 Feb - 18:48:58 10° SSW 18:58:46 33° SE 19:14:13 10° E visible
27 Feb - 21:06:45 10° WSW 21:20:31 55° SSE 21:42:01 10° E visible
27 Feb - 23:27:32 10° W 23:45:03 56° SSW 00:07:25 10° ESE visible
28 Feb - 01:51:04 10° W 02:09:30 37° SW 02:28:23 10° SSE visible
28 Feb - 04:23:15 10° WSW 04:31:23 13° SW 04:39:10 10° SSW visible
28 Feb - 16:56:45 10° SE 16:59:43 11° ESE 17:03:05 10° ESE daylight
28 Feb - 19:08:21 10° SSW 19:18:36 39° SSE 19:35:22 10° E visible
28 Feb - 21:26:52 10° WSW 21:40:57 57° S 22:02:46 10° ESE visible
28 Feb - 23:48:00 10° W 00:05:33 52° SSW 00:27:32 10° SE visible
29 Feb - 02:12:16 10° W 02:29:34 31° SW 02:47:11 10° SSE visible
29 Feb - 17:13:18 10° SSE 17:19:06 17° SE 17:26:51 10° E daylight
29 Feb - 19:27:58 10° SW 19:38:36 44° SSE 19:56:24 10° E visible
29 Feb - 21:47:03 10° WSW 22:01:26 57° S 22:23:25 10° ESE visible
01 Mar - 00:08:34 10° W 00:26:00 47° SSW 00:47:25 10° SE visible
01 Mar - 02:33:55 10° W 02:49:31 25° SW 03:05:21 10° S visible
01 Mar - 17:31:36 10° S 17:38:37 22° SE 17:48:54 10° E daylight
01 Mar - 19:47:47 10° SW 19:58:43 49° SSE 20:17:20 10° E visible
01 Mar - 22:07:19 10° WSW 22:21:57 56° S 22:43:56 10° ESE visible
02 Mar - 00:29:14 10° W 00:46:23 42° SSW 01:06:59 10° SSE visible
02 Mar - 02:56:22 10° W 03:09:23 19° SW 03:22:34 10° SSW visible
02 Mar - 17:50:33 10° SSW 17:58:15 28° SE 18:10:23 10° E daylight
02 Mar - 20:07:43 10° WSW 20:18:58 52° SSE 20:38:11 10° E visible
02 Mar - 22:27:39 10° W 22:42:28 54° S 23:04:18 10° ESE visible
